[[[{"header":{"parameterUnit":"kt","parameterCategory":2,"dx":1,"dy":1,"la1":30.253999710083008,"la2":30.299108505249023,"lo1":-89.0895004272461,"lo2":-89.04439544677734,"nx":28,"ny":28,"refTime":"2022-10-03T21:00:00:Z","depth":"0","parameterNumber":2,"parameterNumberName":"U-component_of_CURRENTS"},"data":[0.4548,0.4441,0.4395,0.4178,0.404,0.3808,0.3684,0.3471,0.3317,0.3034,0.2871,0.2833,0.265,0.239,0.218,0.2207,0.2069,0.1904,0.2046,0.2515,0.259,0.2662,0.2412,0.1943,0.1942,0.124,0.1234,0.1229,0.4605,0.4534,0.4405,0.4206,0.4079,0.3994,0.3772,0.3607,0.3453,0.3331,0.3248,0.3145,0.3114,0.3166,0.3089,0.2973,0.2951,0.2899,0.2631,0.2654,0.3332,0.309,0.2758,0.2758,0.2759,0.2759,0.2759,0.2759,0.469,0.4609,0.4473,0.4303,0.4163,0.3987,0.3834,0.3648,0.3519,0.3338,0.3426,0.3384,0.3409,0.3751,0.3901,0.3808,0.392,0.3723,0.3688,0.357,0.3287,0.3747,0.3906,0.391,0.3913,0.3916,0.3918,0,0.4698,0.4673,0.4483,0.4322,0.4175,0.3954,0.3738,0.3698,0.3446,0.3418,0.3377,0.3429,0.3722,0.3856,0.4173,0.4384,0.4277,0.4533,0.44,0.3775,0.3331,0.3251,0.3986,0.4295,0.4301,0.4305,0.4309,0.4311,0.4764,0.4668,0.4375,0.4259,0.4076,0.3868,0.3718,0.3476,0.3378,0.3288,0.3324,0.3529,0.359,0.4151,0.4396,0.4767,0.4663,0.467,0.4543,0.4161,0.4073,0.3871,0.3782,0.4376,0.4367,0.4361,0.4355,0,0.4806,0.4587,0.4324,0.3959,0.3871,0.374,0.3413,0.3332,0.322,0.3218,0.3257,0.3292,0.3606,0.3881,0.4473,0.4551,0.475,0.4999,0.4506,0.4473,0.4165,0.4055,0.4148,0.4063,0.5054,0.505,0.5047,0,0.4693,0.45,0.4152,0.4006,0.3811,0.3467,0.3334,0.315,0.3059,0.3027,0.3039,0.3142,0.3514,0.3817,0.4094,0.4437,0.468,0.4612,0.4644,0.436,0.43,0.4199,0.4077,0.5059,0.5056,0.5054,0.5052,0,0.4683,0.4259,0.4048,0.3886,0.3412,0.3304,0.3095,0.2903,0.2801,0.2848,0.2879,0.3142,0.3324,0.3718,0.3969,0.3922,0.4573,0.4554,0.4526,0.4501,0.4359,0.43,0.4488,0.5048,0.5047,0.5046,0.5045,0,0.4474,0.4242,0.3965,0.3534,0.3431,0.3257,0.2983,0.28,0.2733,0.2682,0.2807,0.2849,0.3146,0.316,0.3696,0.3523,0.3766,0.3957,0.3977,0.3747,0.3614,0.366,0.3881,0.3684,0.405,0.4042,0.4036,0,0.4494,0.4177,0.3913,0.3609,0.3394,0.3108,0.2926,0.273,0.2611,0.2585,0.2695,0.2721,0.2697,0.2787,0.3056,0.3278,0.3544,0.326,0.3757,0.3768,0.354,0.3796,0.3504,0.3778,0.394,0.395,0.3958,0,0.449,0.3998,0.3967,0.3772,0.3366,0.3209,0.2992,0.2765,0.271,0.2575,0.26,0.2586,0.2677,0.2676,0.2714,0.2989,0.3366,0.3019,0.3033,0.3171,0.396,0.3688,0.3725,0.3505,0.3518,0.3528,0.3882,0,0.4195,0.4018,0.3948,0.3595,0.3419,0.3251,0.2962,0.2825,0.2681,0.2562,0.2557,0.2521,0.252,0.2535,0.2479,0.2766,0.2734,0.2765,0.2791,0.2952,0.306,0.312,0.2386,0.2384,0.2382,0.2381,0,0,0.4252,0.4032,0.3814,0.3634,0.3469,0.3237,0.3073,0.2915,0.2623,0.2583,0.2517,0.2428,0.2379,0.2446,0.2453,0.2393,0.2523,0.242,0.2803,0.2849,0.2892,0.3009,0.3068,0.2378,0.2377,0.2377,0.2376,0,0.4101,0.3964,0.3854,0.3657,0.3386,0.32,0.3162,0.2865,0.276,0.2564,0.2499,0.2518,0.2316,0.2343,0.2326,0.2356,0.2453,0.2337,0.2467,0.2777,0.2825,0.2869,0.2992,0.3047,0.2372,0.2372,0.2373,0,0.4005,0.3811,0.3745,0.3474,0.3303,0.3113,0.3022,0.2867,0.2722,0.2618,0.2425,0.2387,0.2316,0.2261,0.2242,0.2239,0.243,0.2253,0.226,0.2301,0.2622,0.2673,0.2719,0.2151,0.215,0.215,0,0,0.3901,0.3771,0.3483,0.3425,0.3322,0.3079,0.2984,0.2852,0.2674,0.2609,0.2477,0.2387,0.2327,0.2298,0.2206,0.2176,0.2292,0.2229,0.2239,0.2248,0.2292,0.2612,0.266,0.2148,0.2148,0.2148,0,0,0.3855,0.3523,0.3432,0.3349,0.3147,0.2871,0.2828,0.2713,0.2568,0.2563,0.2433,0.2401,0.2333,0.229,0.2274,0.2265,0.222,0.2219,0.2301,0.2313,0.2323,0.2394,0.2242,0,0,0,0,0,0.3555,0.3553,0.3474,0.3426,0.3122,0.2905,0.2861,0.2698,0.2666,0.2625,0.2491,0.2478,0.2261,0.2241,0.2217,0.2288,0.2128,0.2131,0.2135,0.223,0.2243,0.2254,0,0,0,0,0,0,0.3534,0.3478,0.3472,0.3204,0.3133,0.2906,0.2821,0.2774,0.2666,0.2652,0.2494,0.2473,0.2384,0.2252,0.223,0.2301,0.2249,0.2129,0.2132,0.2135,0.2234,0.2245,0.2255,0,0,0,0,0,0.3517,0.3471,0.3037,0.3202,0.3141,0.2908,0.2823,0.2783,0.2698,0.2539,0.2512,0.2584,0.2386,0.2362,0.2239,0.2313,0.2264,0.2256,0.2131,0.2134,0.2136,0.224,0,0,0,0,0,0,0.3504,0.3426,0.302,0.2993,0.3219,0.2917,0.2868,0.2792,0.2591,0.2559,0.2628,0.2619,0.2386,0.2368,0.235,0.2324,0.2276,0.2268,0.2263,0.2133,0.2135,0.2137,0,0,0,0,0,0,0.3449,0.3406,0.3006,0.3037,0.3012,0.2926,0.2883,0.2802,0.2596,0.2692,0.2676,0.2627,0.2458,0.2372,0.2357,0.2231,0.2285,0.2277,0.2272,0.2268,0.2135,0.2136,0,0,0,0,0,0,0.3427,0.3389,0.3043,0.3024,0.3002,0.2692,0.2856,0.2583,0.2531,0.2708,0.2532,0.2532,0.2467,0.2447,0.2363,0.2243,0.2235,0.2284,0.2279,0.2275,0.2273,0,0,0,0,0,0,0,0.3409,0.3711,0.3177,0.3013,0.2994,0.2747,0.274,0.2733,0.2532,0.2532,0.2532,0.2532,0.2328,0.232,0.2311,0.2253,0,0,0.2285,0.2281,0,0,0,0,0,0,0,0,0.3722,0.3714,0.3176,0.3171,0.3165,0.2746,0.274,0.2734,0.2532,0.2532,0.2532,0.2532,0.2326,0.2319,0.2312,0,0,0,0,0,0,0,0,0,0,0,0,0,0,0,0.3176,0.3171,0,0.2745,0.274,0.2735,0.2532,0.2532,0.2532,0.2532,0.2324,0.2318,0.2313,0,0,0,0,0,0,0,0,0,0,0,0,0,0,0,0,0,0,0,0,0,0,0,0,0,0,0,0,0,0,0,0,0,0,0,0,0,0,0,0,0,0,0,0,0,0,0,0,0,0,0,0,0,0,0,0,0,0,0,0,0,0,0,0,0,0,0,0,0]}],[{"header":{"parameterUnit":"kt","parameterCategory":2,"dx":1,"dy":1,"la1":30.253999710083008,"la2":30.299108505249023,"lo1":-89.0895004272461,"lo2":-89.04439544677734,"nx":28,"ny":28,"refTime":"2022-10-03T21:00:00:Z","depth":"0","parameterNumber":3,"parameterNumberName":"V-component_of_CURRENTS"},"data":[-0.2885,-0.2711,-0.2609,-0.2238,-0.2017,-0.1635,-0.1384,-0.0997,-0.0603,-0.0065,0.0264,0.0549,0.0674,0.0703,0.064,0.0644,0.0628,0.0587,0.0574,0.0723,0.0746,0.0767,0.0777,0.0554,0.0554,0.0443,0.0442,0.0442,-0.2937,-0.2819,-0.2574,-0.2276,-0.2024,-0.185,-0.1353,-0.1076,-0.0631,-0.0105,0.0347,0.0733,0.0868,0.1003,0.0951,0.0849,0.0882,0.0787,0.0795,0.083,0.0984,0.0998,0.0818,0.0818,0.0818,0.0818,0.0818,0.0818,-0.3043,-0.2908,-0.2734,-0.2457,-0.2184,-0.1826,-0.1538,-0.1131,-0.0632,0.0053,0.0375,0.0881,0.1135,0.1235,0.1207,0.1097,0.1141,0.1001,0.1013,0.0985,0.1002,0.0956,0.1018,0.1018,0.1018,0.1018,0.1018,0,-0.3135,-0.308,-0.2865,-0.2595,-0.2336,-0.1955,-0.1534,-0.1272,-0.0626,-0.0162,0.0458,0.0848,0.1235,0.1397,0.1361,0.1324,0.1287,0.1267,0.119,0.1227,0.0991,0.0853,0.0962,0.1301,0.1303,0.1304,0.1305,0.1305,-0.3327,-0.3191,-0.2847,-0.2684,-0.2505,-0.2104,-0.1796,-0.1272,-0.086,-0.0011,0.0284,0.0809,0.125,0.146,0.1518,0.147,0.142,0.1314,0.1338,0.1063,0.0906,0.0829,0.0812,0.1322,0.132,0.1318,0.1317,0,-0.3431,-0.3296,-0.2969,-0.2571,-0.2443,-0.2154,-0.1605,-0.1182,-0.0667,-0.0011,0.0195,0.0911,0.1206,0.1423,0.1628,0.1552,0.1541,0.1513,0.1329,0.1178,0.0901,0.0856,0.1104,0.1108,0.1317,0.1314,0.1312,0,-0.351,-0.3277,-0.3028,-0.2865,-0.2463,-0.2156,-0.1606,-0.1194,-0.0568,-0.0046,0.0463,0.0916,0.1261,0.1489,0.1443,0.145,0.1627,0.1383,0.1238,0.1215,0.1176,0.1084,0.1028,0.1701,0.1702,0.1703,0.1704,0,-0.3631,-0.3299,-0.3037,-0.2903,-0.2433,-0.2169,-0.1884,-0.1206,-0.0812,-0.0071,0.0225,0.0896,0.1136,0.1302,0.1312,0.1226,0.154,0.1388,0.1171,0.1136,0.115,0.11,0.1482,0.1705,0.1706,0.1706,0.1706,0,-0.3647,-0.3487,-0.319,-0.2728,-0.263,-0.241,-0.1749,-0.141,-0.0682,-0.0415,0.0163,0.0403,0.1001,0.0791,0.1205,0.1048,0.0968,0.0955,0.0947,0.0777,0.0356,0.0198,0.0649,0.0546,0.0523,0.0518,0.0512,0,-0.3725,-0.3501,-0.3372,-0.3038,-0.2863,-0.2628,-0.2241,-0.1829,-0.1479,-0.0995,-0.0524,-0.0066,-0.0079,0.0123,0.0433,0.0493,0.07,0.0552,0.0429,0.0425,0.0169,0.0647,0.065,0.0558,0.0437,0.0445,0.0451,0,-0.3804,-0.3573,-0.3551,-0.3376,-0.3163,-0.3056,-0.2662,-0.2235,-0.1878,-0.1623,-0.1104,-0.0513,-0.042,-0.0152,0.0001,0.0268,0.0529,0.0018,0.0021,-0.0137,0.0718,0.054,0.057,0.0478,0.0494,0.0506,0.0391,0,-0.3658,-0.3579,-0.3564,-0.3405,-0.3298,-0.3209,-0.2989,-0.2801,-0.2673,-0.2444,-0.1868,-0.1628,-0.1151,-0.0986,-0.0926,-0.029,-0.0551,-0.0609,-0.0741,-0.0346,-0.0478,-0.043,-0.1085,-0.1091,-0.1096,-0.11,0,0,-0.3709,-0.3657,-0.3694,-0.3608,-0.3503,-0.3513,-0.3373,-0.322,-0.3073,-0.283,-0.2965,-0.2237,-0.2058,-0.1334,-0.1148,-0.1149,-0.1221,-0.108,-0.0557,-0.0497,-0.0441,-0.0542,-0.0491,-0.1108,-0.111,-0.1112,-0.1113,0,-0.3671,-0.3716,-0.3704,-0.3642,-0.3603,-0.3535,-0.3532,-0.3471,-0.334,-0.3104,-0.2976,-0.2642,-0.2333,-0.1942,-0.1719,-0.1283,-0.1377,-0.1219,-0.0809,-0.0609,-0.0543,-0.0484,-0.0571,-0.0521,-0.1125,-0.1124,-0.1124,0,-0.3649,-0.3657,-0.3676,-0.3671,-0.3655,-0.3543,-0.3632,-0.3615,-0.3421,-0.3454,-0.3164,-0.3027,-0.2731,-0.2327,-0.2155,-0.221,-0.1561,-0.1722,-0.1691,-0.157,-0.1371,-0.1293,-0.1224,-0.2125,-0.2129,-0.2132,0,0,-0.3618,-0.3642,-0.3629,-0.3668,-0.3655,-0.3638,-0.3632,-0.3611,-0.3531,-0.3493,-0.3356,-0.3126,-0.2831,-0.2665,-0.2467,-0.2136,-0.2141,-0.1845,-0.1798,-0.1759,-0.162,-0.141,-0.1334,-0.2145,-0.2146,-0.2146,0,0,-0.3605,-0.3619,-0.3618,-0.3668,-0.3636,-0.3617,-0.3614,-0.3613,-0.3506,-0.3491,-0.3364,-0.3315,-0.2994,-0.2906,-0.3102,-0.2369,-0.2559,-0.252,-0.2405,-0.2346,-0.23,-0.2182,-0.3052,0,0,0,0,0,-0.3579,-0.3619,-0.3618,-0.3628,-0.3648,-0.3622,-0.3615,-0.3599,-0.3623,-0.3599,-0.3469,-0.3425,-0.2908,-0.3083,-0.3039,-0.2699,-0.2316,-0.2286,-0.2257,-0.2038,-0.1976,-0.1923,0,0,0,0,0,0,-0.3583,-0.3596,-0.3617,-0.3611,-0.3615,-0.3622,-0.3626,-0.3619,-0.3623,-0.362,-0.3454,-0.3419,-0.3311,-0.31,-0.3061,-0.2735,-0.3065,-0.2304,-0.2279,-0.2255,-0.2017,-0.1966,-0.1922,0,0,0,0,0,-0.3586,-0.3596,-0.3647,-0.3607,-0.3611,-0.3596,-0.3625,-0.362,-0.3614,-0.3462,-0.3433,-0.3607,-0.3315,-0.3272,-0.3076,-0.275,-0.3091,-0.3077,-0.2288,-0.2267,-0.2249,-0.1992,0,0,0,0,0,0,-0.3588,-0.3564,-0.3646,-0.3644,-0.3611,-0.3592,-0.3593,-0.362,-0.3451,-0.3431,-0.3603,-0.3602,-0.3316,-0.3282,-0.325,-0.2751,-0.3112,-0.3098,-0.3089,-0.2272,-0.2256,-0.2242,0,0,0,0,0,0,-0.3559,-0.3563,-0.3644,-0.365,-0.3648,-0.3589,-0.359,-0.3444,-0.3442,-0.3596,-0.3595,-0.3603,-0.3307,-0.329,-0.3264,-0.304,-0.3128,-0.3115,-0.3105,-0.3099,-0.2259,-0.2247,0,0,0,0,0,0,-0.3559,-0.3563,-0.3649,-0.3648,-0.3646,-0.3618,-0.3448,-0.343,-0.3582,-0.3598,-0.3582,-0.3582,-0.3312,-0.3288,-0.3274,-0.3063,-0.3046,-0.3128,-0.3119,-0.3112,-0.3108,0,0,0,0,0,0,0,-0.3559,-0.3555,-0.3667,-0.3647,-0.3645,-0.363,-0.3629,-0.3627,-0.3582,-0.3582,-0.3582,-0.3582,-0.3206,-0.3191,-0.3176,-0.3081,0,0,-0.3129,-0.3123,0,0,0,0,0,0,0,0,-0.3551,-0.3554,-0.3667,-0.3667,-0.3668,-0.363,-0.3629,-0.3627,-0.3582,-0.3582,-0.3582,-0.3582,-0.3202,-0.319,-0.3178,0,0,0,0,0,0,0,0,0,0,0,0,0,0,0,-0.3667,-0.3667,0,-0.363,-0.3629,-0.3628,-0.3582,-0.3582,-0.3582,-0.3582,-0.3199,-0.3189,-0.3179,0,0,0,0,0,0,0,0,0,0,0,0,0,0,0,0,0,0,0,0,0,0,0,0,0,0,0,0,0,0,0,0,0,0,0,0,0,0,0,0,0,0,0,0,0,0,0,0,0,0,0,0,0,0,0,0,0,0,0,0,0,0,0,0,0,0,0,0,0]}]],[[{"header":{"parameterUnit":"kt","parameterCategory":2,"dx":1,"dy":1,"la1":30.253999710083008,"la2":30.299108505249023,"lo1":-89.0895004272461,"lo2":-89.04439544677734,"nx":28,"ny":28,"refTime":"2022-10-03T21:00:00:Z","depth":"2","parameterNumber":2,"parameterNumberName":"U-component_of_CURRENTS"},"data":[0.1767,0.173,0.1723,0.1681,0.1764,0.1864,0.1967,0.1936,0.1906,0.1574,0.1316,0.1016,0.0762,0.0712,0.0622,0.0711,0.0956,0.0685,0.0379,0.1233,0.1288,0.1366,0.1579,0,0,0,0,0,0.1837,0.1862,0.1926,0.1943,0.1959,0.2129,0.2277,0.2313,0.2227,0.211,0.1936,0.1383,0.093,0.0728,0.0621,0.0367,0.0703,0.0386,0.1051,0.1104,0.1155,0.1264,0.0609,0.061,0.0611,0.0611,0,0,0.1925,0.1954,0.199,0.2065,0.2164,0.2257,0.2344,0.2421,0.2442,0.2402,0.2442,0.2065,0.1862,0.0831,0.0619,0.0596,0.062,0.0771,0.0824,0.0878,0.0937,0.0652,0.0214,0.0213,0.0211,0.021,0.0208,0,0.1883,0.1939,0.2026,0.2092,0.2196,0.2355,0.2497,0.2564,0.2719,0.2718,0.2732,0.2539,0.2155,0.1832,0.1101,0.0907,0.1453,0.1146,0.1409,0.2131,0.1864,0.1788,0.1814,0.167,0.1676,0.1681,0.1685,0.1687,0.1754,0.1859,0.2024,0.2081,0.2156,0.2365,0.2445,0.2595,0.2681,0.2858,0.2922,0.2849,0.264,0.2201,0.2048,0.1511,0.1768,0.1336,0.1664,0.1696,0.1605,0.1628,0.1647,0.1756,0.1748,0.174,0.1735,0,0.1654,0.171,0.1907,0.2061,0.2126,0.2283,0.2484,0.2581,0.2699,0.2862,0.2923,0.3106,0.2965,0.2842,0.285,0.2676,0.2437,0.2199,0.2162,0.2051,0.1751,0.1748,0.1521,0.1501,0.1483,0.1468,0.1456,0,0.1487,0.1656,0.1735,0.184,0.2049,0.2175,0.2421,0.2497,0.2657,0.2789,0.2916,0.3063,0.3297,0.3234,0.3118,0.2767,0.3087,0.2637,0.2518,0.2722,0.2674,0.3224,0.3215,0.3342,0.3347,0.335,0.3354,0,0.1332,0.1494,0.1674,0.1742,0.1925,0.2062,0.2176,0.2354,0.2468,0.27,0.2779,0.3053,0.3211,0.326,0.3131,0.3234,0.3149,0.3294,0.2659,0.2602,0.2784,0.2732,0.3359,0.336,0.3361,0.3362,0.3364,0,0.1201,0.1263,0.1462,0.1682,0.1745,0.1869,0.2128,0.2256,0.2455,0.255,0.2774,0.2889,0.312,0.3134,0.326,0.3274,0.3166,0.3167,0.315,0.2743,0.2545,0.2202,0.2222,0.2709,0.2708,0.2708,0.2707,0,0.1071,0.1202,0.1245,0.1469,0.158,0.1667,0.1804,0.1965,0.2092,0.2295,0.2512,0.2745,0.2756,0.2873,0.3029,0.3113,0.3098,0.3144,0.3046,0.3036,0.2482,0.2524,0.27,0.2229,0.2698,0.2699,0.27,0,0.0978,0.1061,0.1094,0.1207,0.1326,0.1424,0.1566,0.1748,0.1872,0.2066,0.23,0.259,0.2664,0.2803,0.2889,0.3031,0.3033,0.299,0.2999,0.2647,0.3073,0.2555,0.2507,0.3199,0.3207,0.3214,0.2692,0,0.0965,0.102,0.1044,0.114,0.1225,0.1313,0.1415,0.1519,0.1632,0.1732,0.2044,0.2227,0.2489,0.2559,0.2596,0.2871,0.2695,0.2822,0.2744,0.2925,0.2646,0.2652,0.2592,0.2593,0.2593,0.2593,0,0,0.0914,0.0946,0.0936,0.0998,0.1085,0.112,0.1232,0.1299,0.1474,0.1583,0.1593,0.2038,0.2156,0.2444,0.2519,0.2572,0.2514,0.2544,0.2845,0.2872,0.2898,0.2645,0.265,0.2594,0.2594,0.2594,0.2594,0,0.0901,0.0886,0.0909,0.0961,0.1045,0.1094,0.1124,0.1225,0.1312,0.1505,0.1609,0.1812,0.205,0.2208,0.2314,0.2543,0.2462,0.2596,0.2683,0.284,0.2866,0.2891,0.2645,0.265,0.2595,0.2595,0.2595,0,0.0886,0.0894,0.089,0.0924,0.0977,0.1052,0.1051,0.1125,0.1229,0.1298,0.1509,0.1637,0.1826,0.2035,0.2146,0.2113,0.2376,0.2357,0.2363,0.2427,0.259,0.2622,0.265,0.2267,0.2265,0.2263,0,0,0.089,0.0881,0.0919,0.0924,0.0951,0.1021,0.1062,0.1111,0.1217,0.1276,0.1402,0.1582,0.1756,0.1851,0.2015,0.219,0.2183,0.2304,0.232,0.2332,0.2399,0.2566,0.2599,0.2254,0.2254,0.2253,0,0,0.0896,0.0899,0.0922,0.0909,0.0972,0.1025,0.1068,0.111,0.1246,0.1285,0.1386,0.1428,0.1653,0.1739,0.1611,0.1993,0.195,0.1978,0.1874,0.1895,0.1911,0.1942,0.1601,0,0,0,0,0,0.0908,0.089,0.091,0.0913,0.0952,0.1007,0.1023,0.1087,0.1115,0.1155,0.1299,0.131,0.1725,0.1611,0.1646,0.1741,0.2139,0.2159,0.2179,0.2092,0.2114,0.2132,0,0,0,0,0,0,0.0909,0.0907,0.0912,0.0948,0.096,0.1006,0.1022,0.104,0.1113,0.1123,0.1283,0.1313,0.1376,0.1595,0.1627,0.1717,0.1591,0.2147,0.2164,0.218,0.21,0.2117,0.2132,0,0,0,0,0,0.091,0.0909,0.0941,0.0952,0.0962,0.1044,0.1023,0.1038,0.111,0.1222,0.1252,0.1161,0.1372,0.1409,0.1614,0.1702,0.157,0.1581,0.2158,0.2172,0.2184,0.2108,0,0,0,0,0,0,0.0911,0.0939,0.0946,0.0955,0.0958,0.1047,0.1056,0.1036,0.1209,0.1235,0.1101,0.1106,0.137,0.1399,0.1427,0.1695,0.1552,0.1564,0.1571,0.2169,0.2179,0.2189,0,0,0,0,0,0,0.0941,0.0945,0.0951,0.0954,0.0964,0.1048,0.1056,0.1171,0.1215,0.1081,0.1089,0.1102,0.1367,0.1392,0.1414,0.1589,0.1539,0.155,0.1558,0.1563,0.2177,0.2186,0,0,0,0,0,0,0.0945,0.0949,0.0952,0.0959,0.0968,0.1069,0.1159,0.122,0.1138,0.1076,0.1141,0.1142,0.1361,0.1383,0.1405,0.157,0.1584,0.1539,0.1547,0.1552,0.1556,0,0,0,0,0,0,0,0.0949,0.0891,0.0895,0.0964,0.0972,0.1033,0.1035,0.1038,0.1138,0.1139,0.114,0.1141,0.1476,0.1488,0.15,0.1554,0,0,0.1538,0.1544,0,0,0,0,0,0,0,0,0.0893,0.0891,0.0895,0.0897,0.0898,0.1033,0.1035,0.1037,0.1138,0.1139,0.114,0.1141,0.1479,0.1489,0.1499,0,0,0,0,0,0,0,0,0,0,0,0,0,0,0,0.0895,0.0896,0,0.1033,0.1035,0.1037,0.1138,0.1139,0.114,0.1141,0.1482,0.149,0.1498,0,0,0,0,0,0,0,0,0,0,0,0,0,0,0,0,0,0,0,0,0,0,0,0,0,0,0,0,0,0,0,0,0,0,0,0,0,0,0,0,0,0,0,0,0,0,0,0,0,0,0,0,0,0,0,0,0,0,0,0,0,0,0,0,0,0,0,0,0]}],[{"header":{"parameterUnit":"kt","parameterCategory":2,"dx":1,"dy":1,"la1":30.253999710083008,"la2":30.299108505249023,"lo1":-89.0895004272461,"lo2":-89.04439544677734,"nx":28,"ny":28,"refTime":"2022-10-03T21:00:00:Z","depth":"2","parameterNumber":3,"parameterNumberName":"V-component_of_CURRENTS"},"data":[0.1077,0.1152,0.1151,0.1198,0.1171,0.1006,0.0882,0.0854,0.0816,0.0953,0.0983,0.0745,0.0495,0.0329,0.0181,0.0225,0.0348,0.0251,0.0552,0.045,0.0473,0.0417,0.0509,0,0,0,0,0,0.0978,0.0992,0.1047,0.1102,0.1105,0.1043,0.0943,0.0812,0.0872,0.1045,0.1153,0.0912,0.0612,0.0497,0.0382,0.0302,0.0256,0.0426,0.0319,0.0338,0.0357,0.0407,0.0157,0.0157,0.0158,0.0159,0,0,0.0822,0.0872,0.0917,0.0975,0.1,0.0962,0.0848,0.0853,0.0913,0.1101,0.1238,0.1307,0.1042,0.071,0.0606,0.0643,0.0655,0.0649,0.0653,0.0661,0.0726,0.0639,0.0561,0.0564,0.0566,0.0568,0.057,0,0.0742,0.072,0.0774,0.0865,0.0896,0.082,0.0791,0.0823,0.0797,0.1011,0.1282,0.139,0.1332,0.1168,0.0959,0.0836,0.096,0.084,0.1103,0.0716,0.0611,0.0572,0.0582,0.0532,0.0535,0.0537,0.0538,0.0539,0.0594,0.066,0.0708,0.0749,0.0795,0.0732,0.0729,0.0715,0.0746,0.0994,0.1143,0.1357,0.1454,0.143,0.1313,0.1088,0.1186,0.0895,0.0883,0.1032,0.0994,0.099,0.0987,0.0565,0.0562,0.0559,0.0557,0,0.0511,0.0577,0.0662,0.0726,0.0735,0.0724,0.065,0.0702,0.0786,0.0977,0.1073,0.1408,0.1463,0.1482,0.1422,0.1355,0.1261,0.1168,0.0896,0.0844,0.0985,0.0982,0.1019,0.102,0.102,0.1021,0.1021,0,0.0455,0.0508,0.0596,0.0662,0.0693,0.0656,0.0645,0.0724,0.0851,0.0958,0.1156,0.1376,0.1464,0.1519,0.1369,0.1279,0.1314,0.1144,0.1112,0.0938,0.0919,0.119,0.1193,0.1185,0.1187,0.1188,0.119,0,0.0373,0.0491,0.0558,0.0597,0.0682,0.0657,0.064,0.0732,0.0717,0.0959,0.1083,0.1318,0.1435,0.1392,0.1309,0.1282,0.128,0.1245,0.1117,0.1108,0.1014,0.0998,0.1192,0.1192,0.1192,0.1193,0.1194,0,0.0359,0.0457,0.0559,0.0601,0.0611,0.0663,0.0693,0.0662,0.0835,0.0833,0.1042,0.1166,0.1349,0.1243,0.1296,0.1299,0.1157,0.1113,0.1106,0.1236,0.1162,0.081,0.0731,0.0912,0.0912,0.0911,0.0911,0,0.0279,0.0435,0.0463,0.0548,0.0635,0.063,0.0622,0.0665,0.0669,0.0795,0.087,0.0999,0.0952,0.1045,0.1087,0.1143,0.1094,0.1114,0.1114,0.1112,0.1137,0.1119,0.0926,0.0732,0.0907,0.0907,0.0907,0,0.0238,0.0402,0.0405,0.0454,0.0553,0.0589,0.057,0.0643,0.0686,0.0679,0.0776,0.0811,0.0927,0.1004,0.1109,0.115,0.1067,0.1104,0.111,0.0989,0.1064,0.1098,0.1102,0.1113,0.1117,0.112,0.0904,0,0.0316,0.0367,0.0381,0.0513,0.0534,0.0587,0.062,0.0625,0.0544,0.0606,0.0663,0.0761,0.0931,0.0889,0.0926,0.1054,0.0987,0.1048,0.1125,0.1113,0.1004,0.1006,0.1019,0.1021,0.1023,0.1025,0,0,0.0253,0.0351,0.0395,0.047,0.0498,0.056,0.0611,0.0621,0.0721,0.073,0.0628,0.0829,0.0863,0.1065,0.1024,0.1038,0.1018,0.1075,0.1103,0.1111,0.1119,0.1016,0.1016,0.1029,0.103,0.103,0.1031,0,0.0327,0.0335,0.0377,0.0451,0.0523,0.0597,0.059,0.069,0.0648,0.0676,0.0756,0.0833,0.0874,0.1012,0.1059,0.1059,0.1059,0.1012,0.1057,0.1116,0.1121,0.1126,0.1025,0.1023,0.1036,0.1036,0.1036,0,0.0364,0.0425,0.044,0.0542,0.0587,0.0673,0.0676,0.07,0.0713,0.0826,0.0838,0.0897,0.0998,0.105,0.1069,0.1112,0.1135,0.1136,0.1127,0.1212,0.1281,0.1285,0.1289,0.1245,0.1245,0.1245,0,0,0.0412,0.0444,0.0562,0.0566,0.0594,0.0672,0.0694,0.0725,0.0799,0.0812,0.0877,0.0938,0.0992,0.1037,0.11,0.1177,0.1221,0.1155,0.1145,0.1136,0.1213,0.1281,0.1284,0.1245,0.1245,0.1245,0,0,0.0438,0.0557,0.0574,0.0594,0.0671,0.0787,0.0772,0.0797,0.0852,0.0818,0.0911,0.0933,0.0955,0.1041,0.1034,0.1091,0.114,0.1145,0.1025,0.1015,0.1005,0.1076,0.1071,0,0,0,0,0,0.0561,0.0554,0.0569,0.0583,0.0693,0.079,0.0806,0.083,0.0789,0.0797,0.0857,0.0875,0.1055,0.1052,0.1079,0.1032,0.1246,0.1246,0.1246,0.1108,0.1095,0.1085,0,0,0,0,0,0,0.0568,0.0588,0.0569,0.0683,0.0707,0.0791,0.0789,0.0799,0.0788,0.0784,0.0868,0.0881,0.0956,0.1043,0.1066,0.1018,0.1063,0.1246,0.1246,0.1246,0.1103,0.1093,0.1085,0,0,0,0,0,0.0573,0.0589,0.0746,0.0684,0.0705,0.0751,0.0786,0.0794,0.0777,0.0891,0.09,0.078,0.0957,0.0978,0.1057,0.1004,0.1047,0.1056,0.1246,0.1246,0.1246,0.1098,0,0,0,0,0,0,0.0577,0.0615,0.0752,0.076,0.0646,0.0745,0.0759,0.0789,0.0884,0.0894,0.0814,0.081,0.0959,0.0975,0.099,0.0994,0.1035,0.1043,0.1049,0.1246,0.1246,0.1246,0,0,0,0,0,0,0.0606,0.0622,0.0756,0.0707,0.0711,0.074,0.0751,0.0849,0.0886,0.0804,0.0803,0.0811,0.0927,0.0973,0.0985,0.1139,0.1025,0.1033,0.1039,0.1042,0.1246,0.1246,0,0,0,0,0,0,0.0614,0.0628,0.0706,0.0708,0.0711,0.0813,0.0828,0.0935,0.0845,0.08,0.0836,0.0832,0.0925,0.0939,0.0982,0.1131,0.1137,0.1025,0.1031,0.1035,0.1037,0,0,0,0,0,0,0,0.0621,0.0514,0.0693,0.0709,0.0712,0.0836,0.084,0.0843,0.0844,0.0841,0.0837,0.0834,0.0979,0.0988,0.0997,0.1124,0,0,0.1025,0.1028,0,0,0,0,0,0,0,0,0.051,0.0513,0.0693,0.0695,0.0696,0.0837,0.0839,0.0842,0.0844,0.0841,0.0838,0.0835,0.0981,0.0988,0.0996,0,0,0,0,0,0,0,0,0,0,0,0,0,0,0,0.0693,0.0695,0,0.0837,0.0839,0.0841,0.0843,0.0841,0.0839,0.0836,0.0983,0.0989,0.0995,0,0,0,0,0,0,0,0,0,0,0,0,0,0,0,0,0,0,0,0,0,0,0,0,0,0,0,0,0,0,0,0,0,0,0,0,0,0,0,0,0,0,0,0,0,0,0,0,0,0,0,0,0,0,0,0,0,0,0,0,0,0,0,0,0,0,0,0,0]}]],[[{"header":{"parameterUnit":"kt","parameterCategory":2,"dx":1,"dy":1,"la1":30.253999710083008,"la2":30.299108505249023,"lo1":-89.0895004272461,"lo2":-89.04439544677734,"nx":28,"ny":28,"refTime":"2022-10-03T21:00:00:Z","depth":"4","parameterNumber":2,"parameterNumberName":"U-component_of_CURRENTS"},"data":[-0.1518,-0.1535,-0.1347,-0.1122,-0.0969,-0.0958,-0.0944,-0.0933,-0.0878,-0.0862,-0.0872,-0.0936,-0.1009,-0.0988,-0.1083,-0.1125,-0.1398,-0.1431,-0.1429,-0.1965,-0.2,-0.203,-0.1654,0,0,0,0,0,-0.1488,-0.1441,-0.1333,-0.1065,-0.1071,-0.0999,-0.0984,-0.0924,-0.0906,-0.0935,-0.086,-0.0991,-0.1037,-0.1133,-0.1115,-0.1367,-0.1668,-0.1358,-0.181,-0.1987,-0.2024,-0.1646,0,0,0,0,0,0,-0.1468,-0.1415,-0.1346,-0.1097,-0.1049,-0.0959,-0.0848,-0.0818,-0.0813,-0.0927,-0.095,-0.11,-0.1271,-0.1334,-0.1468,-0.1532,-0.158,-0.1664,-0.1717,-0.1755,-0.1403,-0.0827,-0.1093,0,0,0,0,0,-0.1362,-0.1352,-0.1278,-0.109,-0.093,-0.0831,-0.0677,-0.0701,-0.0649,-0.0812,-0.0906,-0.098,-0.1318,-0.153,-0.1632,-0.1812,-0.2247,-0.2187,-0.221,-0.2126,-0.174,-0.1838,-0.1811,-0.2167,-0.2172,-0.2175,-0.2177,0,-0.1285,-0.1276,-0.1082,-0.0989,-0.0853,-0.0585,-0.0498,-0.0352,-0.0435,-0.0613,-0.0831,-0.1094,-0.1207,-0.169,-0.1944,-0.2181,-0.2128,-0.2283,-0.2191,-0.1794,-0.1893,-0.1855,-0.1817,-0.2207,-0.2205,-0.2202,-0.22,0,-0.1268,-0.1217,-0.1127,-0.0883,-0.0766,-0.0562,-0.0373,-0.0363,-0.0324,-0.0542,-0.0591,-0.0853,-0.116,-0.1454,-0.2068,-0.2074,-0.2387,-0.234,-0.2225,-0.2358,-0.1901,-0.1849,-0.2257,-0.2246,-0.2236,-0.2229,-0.2222,0,-0.1215,-0.1189,-0.1018,-0.1002,-0.0752,-0.0599,-0.0404,-0.0258,-0.0311,-0.0397,-0.0424,-0.0624,-0.1059,-0.1417,-0.155,-0.181,-0.2204,-0.1899,-0.2037,-0.2165,-0.2116,-0.243,-0.2406,-0.2613,-0.261,-0.2607,-0.2605,0,-0.1254,-0.1186,-0.1076,-0.1061,-0.0906,-0.0701,-0.0523,-0.0371,-0.0333,-0.0354,-0.0496,-0.0617,-0.0846,-0.1182,-0.1352,-0.1328,-0.2064,-0.2203,-0.1954,-0.1921,-0.2405,-0.2385,-0.2602,-0.2601,-0.26,-0.2599,-0.2598,0,-0.1297,-0.1273,-0.1191,-0.1048,-0.1001,-0.0877,-0.0607,-0.0489,-0.0452,-0.0389,-0.0393,-0.0476,-0.0588,-0.0575,-0.1075,-0.0906,-0.1088,-0.1365,-0.1396,-0.1225,-0.1307,-0.165,-0.1666,-0.1658,-0.165,-0.1643,-0.1637,0,-0.1316,-0.1312,-0.1283,-0.1191,-0.1142,-0.1034,-0.0866,-0.0717,-0.0593,-0.0614,-0.055,-0.0517,-0.0304,-0.0277,-0.0456,-0.082,-0.0942,-0.0643,-0.1604,-0.1627,-0.1235,-0.1194,-0.1151,-0.153,-0.1543,-0.1553,-0.156,0,-0.1343,-0.1367,-0.1377,-0.133,-0.1277,-0.1206,-0.1041,-0.0854,-0.0779,-0.0707,-0.0671,-0.0364,-0.0426,-0.0383,-0.0369,-0.061,-0.0777,-0.0741,-0.0774,-0.0847,-0.1544,-0.1112,-0.1133,-0.109,-0.1102,-0.1112,-0.1486,0,-0.1379,-0.1391,-0.1391,-0.1354,-0.1297,-0.1275,-0.1165,-0.1108,-0.0985,-0.0922,-0.0806,-0.0824,-0.0776,-0.0659,-0.0555,-0.0628,-0.0691,-0.0918,-0.1089,-0.1049,-0.1195,-0.1251,-0.0708,-0.0716,-0.0723,-0.0728,0,0,-0.1387,-0.1372,-0.137,-0.1376,-0.1327,-0.1318,-0.1261,-0.1205,-0.1226,-0.1153,-0.1139,-0.1069,-0.1031,-0.0909,-0.0734,-0.0793,-0.1011,-0.071,-0.1005,-0.1032,-0.1061,-0.1201,-0.1247,-0.074,-0.0742,-0.0745,-0.0747,0,-0.1369,-0.1381,-0.1374,-0.1377,-0.1362,-0.1311,-0.1314,-0.1306,-0.1249,-0.1191,-0.1223,-0.1194,-0.1109,-0.108,-0.1018,-0.0883,-0.1073,-0.0793,-0.0615,-0.1044,-0.1062,-0.1082,-0.1219,-0.1256,-0.0763,-0.0762,-0.0761,0,-0.1359,-0.1347,-0.1349,-0.1331,-0.1319,-0.1286,-0.1297,-0.1296,-0.1221,-0.1343,-0.132,-0.1315,-0.1305,-0.1197,-0.118,-0.125,-0.1241,-0.1104,-0.1076,-0.1131,-0.1592,-0.1608,-0.1622,-0.1455,-0.1455,-0.1456,0,0,-0.1343,-0.1346,-0.1314,-0.1322,-0.1313,-0.1296,-0.1293,-0.1289,-0.1312,-0.1329,-0.1371,-0.1398,-0.1322,-0.1326,-0.1344,-0.1301,-0.1568,-0.1168,-0.1136,-0.1108,-0.1144,-0.1593,-0.1607,-0.1457,-0.1457,-0.1457,0,0,-0.1331,-0.1304,-0.1304,-0.1308,-0.129,-0.126,-0.1266,-0.1264,-0.1308,-0.1331,-0.1361,-0.1377,-0.133,-0.1428,-0.1447,-0.1262,-0.1427,-0.1426,-0.1104,-0.1066,-0.1035,-0.1052,-0.143,0,0,0,0,0,-0.1294,-0.1304,-0.1304,-0.1301,-0.1284,-0.1259,-0.1257,-0.1252,-0.1265,-0.1269,-0.1329,-0.1326,-0.1423,-0.1442,-0.1456,-0.1235,-0.1476,-0.1472,-0.1469,-0.1051,-0.101,-0.0975,0,0,0,0,0,0,-0.1292,-0.1289,-0.1303,-0.1274,-0.1269,-0.1259,-0.1257,-0.1256,-0.1264,-0.1266,-0.1315,-0.1326,-0.1343,-0.1436,-0.1448,-0.1233,-0.1426,-0.1474,-0.1472,-0.1469,-0.1037,-0.1003,-0.0974,0,0,0,0,0,-0.1291,-0.1288,-0.1266,-0.1274,-0.127,-0.1259,-0.1258,-0.1257,-0.1272,-0.1297,-0.1306,-0.127,-0.1342,-0.1356,-0.1443,-0.1222,-0.1418,-0.1422,-0.1473,-0.147,-0.1468,-0.102,0,0,0,0,0,0,-0.129,-0.129,-0.1265,-0.1263,-0.1278,-0.126,-0.1259,-0.1258,-0.1305,-0.1311,-0.1253,-0.1253,-0.1341,-0.1352,-0.1363,-0.121,-0.1411,-0.1416,-0.1418,-0.1471,-0.1469,-0.1468,0,0,0,0,0,0,-0.1291,-0.1289,-0.1264,-0.127,-0.1269,-0.1261,-0.126,-0.1305,-0.1309,-0.126,-0.126,-0.1253,-0.1353,-0.135,-0.1358,-0.1425,-0.1406,-0.141,-0.1413,-0.1415,-0.1469,-0.1468,0,0,0,0,0,0,-0.129,-0.1288,-0.127,-0.127,-0.1269,-0.125,-0.1305,-0.1307,-0.1252,-0.1261,-0.1253,-0.1254,-0.1352,-0.1359,-0.1354,-0.1417,-0.1423,-0.1406,-0.1409,-0.1411,-0.1413,0,0,0,0,0,0,0,-0.1289,-0.1306,-0.1272,-0.127,-0.1269,-0.1245,-0.1245,-0.1245,-0.1252,-0.1252,-0.1253,-0.1253,-0.1382,-0.1386,-0.1391,-0.1411,0,0,-0.1406,-0.1408,0,0,0,0,0,0,0,0,-0.1307,-0.1306,-0.1272,-0.1271,-0.1271,-0.1245,-0.1245,-0.1245,-0.1252,-0.1252,-0.1253,-0.1253,-0.1383,-0.1387,-0.1391,0,0,0,0,0,0,0,0,0,0,0,0,0,0,0,-0.1272,-0.1271,0,-0.1245,-0.1245,-0.1245,-0.1252,-0.1252,-0.1253,-0.1253,-0.1384,-0.1387,-0.139,0,0,0,0,0,0,0,0,0,0,0,0,0,0,0,0,0,0,0,0,0,0,0,0,0,0,0,0,0,0,0,0,0,0,0,0,0,0,0,0,0,0,0,0,0,0,0,0,0,0,0,0,0,0,0,0,0,0,0,0,0,0,0,0,0,0,0,0,0]}],[{"header":{"parameterUnit":"kt","parameterCategory":2,"dx":1,"dy":1,"la1":30.253999710083008,"la2":30.299108505249023,"lo1":-89.0895004272461,"lo2":-89.04439544677734,"nx":28,"ny":28,"refTime":"2022-10-03T21:00:00:Z","depth":"4","parameterNumber":3,"parameterNumberName":"V-component_of_CURRENTS"},"data":[-0.0199,-0.0225,-0.0168,-0.0268,-0.0239,-0.04,-0.0465,-0.056,-0.0665,-0.0718,-0.0677,-0.072,-0.0646,-0.073,-0.0584,-0.0576,-0.0337,-0.0549,-0.0546,-0.015,-0.0134,-0.012,-0.0372,0,0,0,0,0,-0.0071,-0.009,-0.0095,-0.0061,-0.0121,-0.01,-0.0319,-0.0375,-0.0498,-0.0716,-0.0689,-0.0801,-0.0723,-0.072,-0.0621,-0.0677,-0.0395,-0.0559,-0.0219,-0.014,-0.0122,-0.0373,0,0,0,0,0,0,0.0088,0.0057,0.0136,0.0212,0.0159,0.0003,-0.0011,-0.0234,-0.0396,-0.0651,-0.0729,-0.0791,-0.0844,-0.0739,-0.059,-0.047,-0.0407,-0.0266,-0.0243,-0.0225,-0.0444,-0.0308,-0.0519,0,0,0,0,0,0.021,0.0334,0.0325,0.0409,0.0434,0.0279,0.0199,0.0083,-0.0138,-0.0275,-0.0556,-0.0587,-0.0759,-0.0704,-0.0532,-0.0328,-0.0165,-0.0102,-0.0089,-0.0123,0.0016,0.0075,0.0095,-0.0055,-0.0053,-0.0052,-0.0051,0,0.0356,0.0398,0.0511,0.0523,0.063,0.0654,0.0567,0.0496,0.0238,-0.0067,-0.0328,-0.0459,-0.0601,-0.0592,-0.0529,-0.0259,-0.0209,-0.0058,-0.0096,0.0045,0.0097,0.0114,0.0129,-0.0037,-0.0038,-0.0039,-0.004,0,0.0421,0.0518,0.0529,0.061,0.0654,0.0668,0.0618,0.0426,0.0366,0.001,-0.0031,-0.0281,-0.0358,-0.0336,-0.0289,-0.0196,-0.0134,-0.0065,0.021,0.0265,0.0149,0.0159,-0.0013,-0.0019,-0.0023,-0.0027,-0.003,0,0.0506,0.0516,0.0627,0.0669,0.0646,0.0675,0.0588,0.0536,0.0341,0.0071,0.0035,-0.0206,-0.0205,-0.0267,-0.006,-0.0035,-0.0039,0.0034,0.0065,0.0206,0.022,0.0191,0.0204,0.0055,0.0053,0.0051,0.0049,0,0.056,0.057,0.0594,0.0625,0.0617,0.0661,0.0667,0.0525,0.0395,0.0226,0.0098,-0.0085,-0.0153,-0.0097,0.004,0.0096,-0.0002,0.0053,0.0098,0.0106,0.0184,0.02,0.0047,0.0046,0.0046,0.0045,0.0044,0,0.0629,0.0635,0.0651,0.0618,0.061,0.0671,0.0569,0.054,0.0353,0.034,0.0189,0.0133,-0.0032,0.013,0.0056,0.0092,0.0264,0.0278,0.0287,0.0106,0.0226,0.0615,0.0551,0.0553,0.0554,0.0556,0.0557,0,0.0692,0.068,0.0719,0.0711,0.0695,0.0743,0.0717,0.0662,0.0657,0.0566,0.0432,0.0347,0.0474,0.0449,0.0357,0.0304,0.0327,0.0329,0.0403,0.0408,0.0267,0.0143,0.0296,0.0576,0.0574,0.0572,0.0571,0,0.0736,0.0776,0.0793,0.0784,0.0847,0.0818,0.0824,0.0752,0.0667,0.0805,0.0656,0.0589,0.0597,0.051,0.0463,0.037,0.0382,0.0512,0.0507,0.0633,0.0348,0.0202,0.018,0.0329,0.0322,0.0317,0.0584,0,0.0797,0.0832,0.0828,0.0838,0.0833,0.0852,0.0866,0.0913,0.1015,0.1002,0.0905,0.0911,0.0817,0.0786,0.0808,0.0576,0.0729,0.0665,0.0655,0.0584,0.0738,0.0728,0.0861,0.0862,0.0862,0.0863,0,0,0.0854,0.0862,0.0879,0.0874,0.0888,0.0919,0.0899,0.0911,0.1013,0.0981,0.1146,0.1039,0.1028,0.0744,0.0779,0.0807,0.0871,0.0804,0.0655,0.0633,0.0611,0.0748,0.0738,0.0863,0.0863,0.0864,0.0864,0,0.086,0.0918,0.0895,0.0908,0.0912,0.0913,0.0919,0.0972,0.0995,0.1093,0.1062,0.1017,0.1098,0.0945,0.0871,0.0838,0.0852,0.0865,0.0784,0.0665,0.0642,0.0621,0.0752,0.0742,0.0865,0.0865,0.0865,0,0.0891,0.091,0.092,0.0927,0.0917,0.0905,0.0918,0.0923,0.0925,0.0971,0.1073,0.1067,0.0987,0.0967,0.0961,0.0968,0.0868,0.09,0.0898,0.0832,0.0705,0.0681,0.066,0.0928,0.0928,0.0928,0,0,0.0891,0.0911,0.0911,0.0927,0.0921,0.0918,0.0915,0.0927,0.0956,0.0971,0.1041,0.1055,0.0986,0.0994,0.0982,0.0975,0.0957,0.0907,0.0904,0.0902,0.0836,0.071,0.0687,0.0929,0.0929,0.0929,0,0,0.0882,0.0906,0.0916,0.0944,0.0925,0.0911,0.0907,0.0919,0.0954,0.0987,0.0995,0.1003,0.1004,0.1004,0.1019,0.0929,0.0942,0.0941,0.0925,0.0921,0.0918,0.0839,0.096,0,0,0,0,0,0.0883,0.0903,0.0912,0.0918,0.0932,0.0907,0.0904,0.0911,0.0941,0.0926,0.0995,0.0953,0.1007,0.1023,0.102,0.094,0.0936,0.0935,0.0934,0.0911,0.0907,0.0904,0,0,0,0,0,0,0.0886,0.0893,0.0911,0.0905,0.0908,0.0907,0.093,0.093,0.0941,0.0944,0.0949,0.0952,0.0948,0.102,0.1018,0.0941,0.0961,0.0936,0.0934,0.0933,0.0909,0.0906,0.0904,0,0,0,0,0,0.0888,0.0894,0.0926,0.0903,0.0906,0.0914,0.0931,0.0932,0.0939,0.094,0.0943,0.0949,0.0947,0.0949,0.1019,0.0941,0.0961,0.0961,0.0935,0.0934,0.0933,0.0908,0,0,0,0,0,0,0.0889,0.0876,0.0925,0.0925,0.0918,0.0913,0.0917,0.0933,0.0934,0.0937,0.0939,0.0941,0.0946,0.0947,0.0948,0.0941,0.0962,0.0961,0.0961,0.0934,0.0933,0.0933,0,0,0,0,0,0,0.0873,0.0876,0.0925,0.0943,0.0944,0.0912,0.0916,0.0909,0.0935,0.0932,0.0934,0.094,0.096,0.0946,0.0947,0.0935,0.0962,0.0962,0.0961,0.0961,0.0934,0.0933,0,0,0,0,0,0,0.0873,0.0875,0.0943,0.0944,0.0945,0.0935,0.0906,0.0928,0.0932,0.0932,0.0936,0.0938,0.096,0.096,0.0946,0.0933,0.0934,0.0962,0.0962,0.0962,0.0961,0,0,0,0,0,0,0,0.0873,0.0867,0.0936,0.0944,0.0945,0.0922,0.0921,0.092,0.0933,0.0934,0.0936,0.0937,0.0963,0.0963,0.0963,0.0932,0,0,0.0962,0.0962,0,0,0,0,0,0,0,0,0.0865,0.0867,0.0936,0.0936,0.0936,0.0922,0.0921,0.092,0.0933,0.0934,0.0935,0.0936,0.0963,0.0963,0.0963,0,0,0,0,0,0,0,0,0,0,0,0,0,0,0,0.0936,0.0936,0,0.0921,0.0921,0.092,0.0933,0.0934,0.0935,0.0936,0.0963,0.0963,0.0963,0,0,0,0,0,0,0,0,0,0,0,0,0,0,0,0,0,0,0,0,0,0,0,0,0,0,0,0,0,0,0,0,0,0,0,0,0,0,0,0,0,0,0,0,0,0,0,0,0,0,0,0,0,0,0,0,0,0,0,0,0,0,0,0,0,0,0,0,0]}]]]